sat.trackr.live / text

‹ back to catalog

STARLINK-30330

NORAD 57636 · 2023-122E

PAYLOAD ACTIVE UNKNOWN

§ Identity

Operator
Country
US
Launch date
2023-08-17
Launch site
AFETR
Launch vehicle
Mass (kg)
RCS (m²)

Purposes: comms

External: N2YO · Heavens-Above · Gunter

§ Orbital elements

Epoch: 2026-09-19T21:24:28.527840Z

Period
94.27 min
Inclination
43.0019°
Eccentricity
0.0001261
Mean motion
15.27578682 rev/d
Perigee alt
482.2 km
Apogee alt
483.9 km
Semi-major
6,861.2 km
B*
4.5193e-5
RAAN
76.0955°
Arg perigee
265.7111°
Mean anomaly
94.3597°
Rev number
17,190

§ Raw data

STARLINK-303301 57636U 23122E   26262.89199685  .00000982  00000+0  45193-4 0  99942 57636  43.0019  76.0955 0001261 265.7111  94.3597 15.27578682171907

JSON: /api/v1/satellites/57636 · /tle

For live sub-satellite position, see the globe view (requires WebGL).

§ Visibility from observer

Set your observer location to see the next 7 days of passes ≥ 10°. The values pass through the URL so the page stays shareable.

No JS? Fill the form by hand. The geolocation button needs JavaScript.